Weather reports worldwide

Advertisment
Boulogne, France (7002): temperature & dewpoint: 08.12.2018 01:00:00 - 14.12.2018 01:00:00 (CET)Boulogne, France (7002): wind speed & gusts: 08.12.2018 01:00:00 - 14.12.2018 01:00:00 (CET)Boulogne, France (7002): wind direction: 08.12.2018 01:00:00 - 14.12.2018 01:00:00 (CET)Boulogne, France (7002): reduced air pressure: 08.12.2018 01:00:00 - 14.12.2018 01:00:00 (CET)Boulogne, France (7002): visibility: 08.12.2018 01:00:00 - 14.12.2018 01:00:00 (CET)Boulogne, France (7002): precipitation: 08.12.2018 01:00:00 - 14.12.2018 01:00:00 (CET)
Date & Time tt [°C] td [°C] ff [km/h] ff [kn] fx [km/h] fx [kn] dd ppp [hPa] vv [km] rr [mm]
14.12.2018 01:00:00 - - - - - - - - - -
14.12.2018 00:00:00 -0,7 -3,2 22 12 39 21 E 1020,4 - 0,0
13.12.2018 23:00:00 -0,3 -3,2 24 13 41 22 E 1019,8 - 0,0
13.12.2018 22:00:00 0,1 -3,3 23 12 39 21 E 1019,8 - 0,0
13.12.2018 21:00:00 0,4 -3,2 22 12 45 24 E 1019,4 - 0,0
13.12.2018 20:00:00 0,6 -2,6 22 12 39 21 E 1019,0 - 0,0
13.12.2018 19:00:00 0,7 -2,0 24 13 42 23 E 1018,5 - 0,0
13.12.2018 18:00:00 0,9 -1,8 13 7 22 12 E 1018,4 - 0,0
13.12.2018 17:00:00 1,7 -1,9 12 6 33 18 ENE 1018,0 - 0,0
13.12.2018 16:00:00 2,6 -2,5 19 10 38 20 E 1017,4 18 0,0
13.12.2018 15:00:00 3,1 -2,4 21 11 37 20 E 1017,0 - 0,0
13.12.2018 14:00:00 3,1 -2,4 22 12 50 27 E 1017,3 - 0,0
13.12.2018 13:00:00 2,7 -2,4 23 12 44 24 E 1017,6 18 0,0
13.12.2018 12:00:00 2,5 -2,2 16 8 41 22 E 1017,9 - 0,0
13.12.2018 11:00:00 1,7 -1,9 21 11 48 26 E 1018,0 - 0,0
13.12.2018 10:00:00 0,8 -2,1 24 13 57 31 E 1017,8 7 0,0
13.12.2018 09:00:00 0,2 -2,2 22 12 46 25 E 1017,7 - 0,0
13.12.2018 08:00:00 0,1 -2,1 19 11 44 24 E 1017,5 - 0,0
13.12.2018 07:00:00 0,2 -1,7 22 12 39 21 E 1017,5 - 0,0
13.12.2018 06:00:00 0,0 -1,6 16 8 33 18 E 1018,0 - 0,0
13.12.2018 05:00:00 -0,1 -1,5 16 8 40 22 E 1018,4 - 0,0
13.12.2018 04:00:00 0,0 -1,4 14 8 33 18 E 1018,7 6 0,0
13.12.2018 03:00:00 0,3 -1,3 13 7 34 18 E 1019,4 - 0,0
13.12.2018 02:00:00 0,4 -0,9 13 7 28 15 E 1019,6 - 0,0
13.12.2018 01:00:00 0,7 -0,6 11 6 28 15 ESE 1020,2 6 0,0
13.12.2018 00:00:00 0,8 -0,5 13 7 34 18 E 1020,5 - 0,0
12.12.2018 23:00:00 1,2 -0,3 18 10 41 22 E 1020,8 - 0,0
12.12.2018 22:00:00 2,1 0,2 19 11 44 24 E 1020,9 12 0,0
12.12.2018 21:00:00 2,6 0,3 19 10 39 21 E 1021,2 - 0,0
12.12.2018 20:00:00 2,7 0,4 15 8 33 18 E 1021,7 - 0,0
12.12.2018 19:00:00 3,0 0,1 19 11 37 20 E 1022,0 - 0,0
12.12.2018 18:00:00 3,2 -0,3 16 9 31 17 E 1022,4 - 0,0
12.12.2018 17:00:00 4,2 -0,6 14 8 27 14 E 1022,6 - 0,0
12.12.2018 16:00:00 5,5 -1,9 11 6 24 13 E 1023,1 20 0,0
12.12.2018 15:00:00 6,1 -3,3 9 5 28 15 E 1023,6 - 0,0
12.12.2018 14:00:00 6,2 -3,5 16 9 32 17 ESE 1023,8 - 0,0
12.12.2018 13:00:00 5,8 -2,8 16 9 31 17 ESE 1024,0 25 0,0
12.12.2018 12:00:00 5,4 -2,9 16 9 28 15 ESE 1024,5 - 0,0
12.12.2018 11:00:00 4,7 -2,6 13 7 31 17 SE 1024,9 - 0,0
12.12.2018 10:00:00 3,8 -2,4 18 10 33 18 SE 1024,8 25 0,0
12.12.2018 09:00:00 3,3 -2,5 17 9 37 20 SE 1024,5 - 0,0
12.12.2018 08:00:00 4,1 -2,5 21 11 35 19 SE 1024,2 - 0,0
12.12.2018 07:00:00 4,4 -1,8 16 9 32 17 SE 1024,0 10 0,0
12.12.2018 06:00:00 4,7 -1,8 17 9 35 19 SE 1023,9 - 0,0
12.12.2018 05:00:00 4,7 -1,3 16 9 28 15 SE 1024,1 - 0,0
12.12.2018 04:00:00 4,8 -0,8 10 6 30 16 SSE 1024,6 10 0,0
12.12.2018 03:00:00 5,0 -0,2 20 11 37 20 SE 1024,3 - 0,0
12.12.2018 02:00:00 5,4 0,4 19 10 32 17 SE 1024,1 - 0,0
12.12.2018 01:00:00 5,5 0,8 15 8 28 15 SE 1024,1 10 0,0
12.12.2018 00:00:00 5,8 1,3 11 6 24 13 SE 1024,3 - 0,0
11.12.2018 23:00:00 6,0 1,9 15 8 26 14 ESE 1024,3 - 0,0
11.12.2018 22:00:00 6,4 2,3 13 7 22 12 ESE 1024,5 10 0,0
11.12.2018 21:00:00 6,3 2,6 14 7 24 13 ESE 1024,7 - 0,0
11.12.2018 20:00:00 6,1 2,7 11 6 20 11 SE 1024,9 - 0,0
11.12.2018 19:00:00 6,4 2,8 11 6 20 11 SE 1024,8 10 0,0
11.12.2018 18:00:00 6,6 2,9 13 7 22 12 SE 1024,7 - 0,0
11.12.2018 17:00:00 7,1 3,0 9 5 15 8 SE 1024,7 - 0,0
11.12.2018 16:00:00 7,4 3,1 9 5 16 9 S 1024,7 10 0,0
11.12.2018 15:00:00 8,3 3,1 10 5 18 10 SSE 1024,8 - 0,0
11.12.2018 14:00:00 8,4 3,4 11 6 20 11 SE 1025,3 - 0,0
11.12.2018 13:00:00 7,9 3,4 8 4 15 8 S 1025,9 12 0,0
11.12.2018 12:00:00 7,6 3,4 8 5 13 7 ESE 1026,4 - 0,0
11.12.2018 11:00:00 5,9 3,4 9 5 13 7 SE 1026,7 - 0,0
11.12.2018 10:00:00 5,2 2,9 6 4 9 5 ESE 1026,5 12 0,0
11.12.2018 09:00:00 4,7 2,7 8 4 8 4 SE 1026,5 - 0,0
11.12.2018 08:00:00 5,3 3,3 5 3 8 4 ESE 1026,2 - 0,0
11.12.2018 07:00:00 5,8 3,3 3 2 6 3 ESE 1026,3 12 0,0
11.12.2018 06:00:00 6,7 3,7 4 2 8 4 SE 1026,6 - 0,0
11.12.2018 05:00:00 7,0 3,6 4 2 12 7 NE 1026,7 - 0,0
11.12.2018 04:00:00 7,2 4,2 6 3 12 7 NE 1026,9 10 0,0
11.12.2018 03:00:00 7,3 4,4 8 4 13 7 NNE 1027,2 - 0,0
11.12.2018 02:00:00 7,5 4,6 6 3 19 10 N 1027,3 - 0,0
11.12.2018 01:00:00 7,5 4,8 7 4 16 9 N 1027,5 10 0,0
11.12.2018 00:00:00 7,5 5,0 9 5 23 12 N 1027,6 - 0,0
10.12.2018 23:00:00 8,0 4,8 16 9 27 15 NNW 1027,6 - 0,0
10.12.2018 22:00:00 8,2 4,8 16 8 27 14 NNW 1027,5 - 0,0
10.12.2018 21:00:00 8,4 5,1 14 8 27 15 NNW 1027,5 - 0,0
10.12.2018 20:00:00 8,4 5,0 16 9 29 16 NNW 1027,4 - 0,0
10.12.2018 19:00:00 8,7 4,9 18 10 31 17 NW 1027,6 12 0,0
10.12.2018 18:00:00 8,8 4,8 16 9 29 16 NW 1027,4 - 0,0
10.12.2018 17:00:00 8,7 4,7 16 9 31 17 NNW 1027,4 - 0,0
10.12.2018 16:00:00 8,8 4,8 16 9 31 17 NNW 1027,1 10 0,0
10.12.2018 15:00:00 8,9 4,9 19 10 32 18 NW 1026,9 - 0,0
10.12.2018 14:00:00 8,6 5,0 19 11 37 20 NW 1026,8 - 0,0
10.12.2018 13:00:00 8,6 5,3 22 12 41 22 NW 1026,9 - 0,0
10.12.2018 12:00:00 8,6 5,2 24 13 41 22 NW 1027,0 - 0,0
10.12.2018 11:00:00 8,5 5,4 24 13 39 21 NW 1026,9 - 0,0
10.12.2018 10:00:00 8,4 5,3 25 13 43 23 NW 1026,4 10 0,0
10.12.2018 09:00:00 8,2 5,1 28 15 49 26 NW 1025,8 - 0,0
10.12.2018 08:00:00 8,1 5,2 29 15 48 26 NW 1025,4 - 0,0
10.12.2018 07:00:00 8,1 5,4 26 14 51 27 NW 1024,9 6 0,0
10.12.2018 06:00:00 8,6 5,5 31 17 51 27 NW 1024,4 - 0,0
10.12.2018 05:00:00 8,6 5,3 27 15 47 25 WNW 1024,2 - 0,0
10.12.2018 04:00:00 8,5 5,4 30 16 47 26 WNW 1023,7 - 0,0
10.12.2018 03:00:00 8,7 4,9 28 15 45 24 WNW 1023,6 - 0,0
10.12.2018 02:00:00 8,6 5,0 25 14 45 24 WNW 1023,1 - 0,0
10.12.2018 01:00:00 8,8 4,6 23 13 43 23 WNW 1022,7 6 0,0
10.12.2018 00:00:00 9,2 5,0 27 15 44 24 WNW 1022,0 - 0,0
09.12.2018 23:00:00 9,2 4,6 20 11 46 25 NW 1021,2 - 0,0
09.12.2018 22:00:00 9,4 4,8 26 14 49 27 NW 1020,3 - 0,0
09.12.2018 21:00:00 9,4 4,6 28 15 53 29 NW 1019,7 - 0,0
09.12.2018 20:00:00 9,5 4,1 35 19 63 34 NW 1018,5 - 0,0
09.12.2018 19:00:00 9,8 4,4 35 19 59 32 NW 1016,9 - 0,0
09.12.2018 18:00:00 9,9 5,1 26 14 57 31 WNW 1016,1 - 0,0
09.12.2018 17:00:00 9,9 4,1 31 17 56 31 NW 1014,6 - 0,0
09.12.2018 16:00:00 10,0 4,4 30 16 53 29 NW 1012,7 10 0,0
09.12.2018 15:00:00 9,7 4,5 35 19 63 34 NNW 1010,9 - 0,0
09.12.2018 14:00:00 10,1 6,4 32 17 64 35 WNW 1008,9 - 0,0
09.12.2018 13:00:00 10,2 6,5 36 19 66 36 WNW 1007,8 10 0,0
09.12.2018 12:00:00 10,4 6,7 42 23 74 40 WNW 1006,7 - 0,0
09.12.2018 11:00:00 10,5 6,8 52 28 87 47 W 1005,4 - 0,0
09.12.2018 10:00:00 10,4 6,7 59 32 87 47 W 1003,8 6 0,0
09.12.2018 09:00:00 10,6 6,5 58 31 90 49 W 1002,9 - 0,0
09.12.2018 08:00:00 10,5 6,3 61 33 96 52 W 1002,0 - 0,0
09.12.2018 07:00:00 10,6 6,2 55 30 101 54 W 1002,0 6 0,0
09.12.2018 06:00:00 10,4 5,4 66 36 106 57 W 1001,5 - 0,0
09.12.2018 05:00:00 10,5 5,9 63 34 106 57 W 1001,3 - 0,0
09.12.2018 04:00:00 10,1 5,7 66 36 111 60 W 1001,2 - 0,0
09.12.2018 03:00:00 10,0 5,8 63 34 96 52 W 1000,9 - 0,0
09.12.2018 02:00:00 10,4 5,8 60 33 102 55 W 1000,5 - 0,0
09.12.2018 01:00:00 10,8 6,3 64 34 100 54 W 1000,2 6 0,0
09.12.2018 00:00:00 10,5 6,1 60 32 96 52 W 1000,2 - 0,0
08.12.2018 23:00:00 10,9 7,0 60 33 100 54 W 1000,1 - 0,0
08.12.2018 22:00:00 11,0 7,5 58 32 103 56 W 1000,0 5 0,0
08.12.2018 21:00:00 11,4 7,9 55 30 95 51 W 1000,1 - 0,0
08.12.2018 20:00:00 11,5 8,5 46 25 91 49 W 999,6 - 0,6
08.12.2018 19:00:00 11,1 10,0 63 34 95 51 W 1000,2 2,0 1,0
08.12.2018 18:00:00 11,1 10,5 61 33 98 53 WSW 1000,5 - 1,0
08.12.2018 17:00:00 10,9 10,6 42 23 91 49 SW 1001,8 - 1,0
08.12.2018 16:00:00 11,1 10,5 56 30 77 42 SW 1003,2 - 0,8
08.12.2018 15:00:00 11,2 9,9 44 24 75 40 WSW 1005,0 - 0,2
08.12.2018 14:00:00 11,3 8,3 39 21 81 44 WSW 1006,9 - 0,0
08.12.2018 13:00:00 11,2 6,3 48 26 83 45 WSW 1007,6 - 0,0
08.12.2018 12:00:00 11,1 6,0 50 27 87 47 W 1007,9 - 0,0
08.12.2018 11:00:00 10,7 6,1 50 27 90 48 W 1008,3 - 0,0
08.12.2018 10:00:00 9,8 6,5 48 26 85 46 W 1008,1 - 0,0
08.12.2018 09:00:00 10,6 5,6 54 29 88 47 W 1007,8 - 0,0
08.12.2018 08:00:00 10,5 5,0 55 30 93 50 W 1007,5 - 0,0
08.12.2018 07:00:00 10,6 4,9 55 30 90 49 W 1006,8 6 0,0
08.12.2018 06:00:00 10,5 5,7 54 29 98 53 W 1006,8 - 0,0
08.12.2018 05:00:00 10,6 5,8 56 31 86 46 W 1006,7 - 0,0
08.12.2018 04:00:00 10,5 5,9 53 29 84 45 W 1006,9 6 0,0
08.12.2018 03:00:00 10,1 6,4 43 23 92 50 WSW 1006,8 - 0,0
08.12.2018 02:00:00 10,5 5,0 50 27 98 53 W 1007,1 - 0,0
08.12.2018 01:00:00 10,2 5,2 55 30 96 52 W 1007,5 6 0,0

tt = temperature
td = dewpoint
ff = wind speed
fx = gusts
dd = wind direction
ppp = reduced air pressure
vv = visibility
rr = precipitation

Next stations